VIR511K EGLL-KJFK

Flight info

Callsign VIR511K
Flight time N/A
Altitude 38000
Route CPT L9 BIBPE DCT BUCGO DCT FELCA DCT NICXI DCT BAKUR DCT NEBIN/M085F380 DCT 5330N02000W 5230N03000W 51N040W 4930N05000W DCT IBERG/N0481F380 N376B MIILS DCT HULTN DCT ENE PARCH4
Aircraft A35K/H-SDE2E3GHIJ3J4J5LM1ORWXY/LB1D1

Departure

Time 2026-05-06 22:06
Airport London Heathrow Airport (EGLL)

Arrival

Time N/A
Airport John F. Kennedy International Airport (KJFK)
Time Latitude Longitude Altitude Speed Heading
2026-05-06 21:47 51.46981 -0.47489 93 ft 0 kts 269°
2026-05-06 21:56 51.46981 -0.47466 93 ft 3 kts 269°
2026-05-06 21:56 51.46981 -0.47432 93 ft 3 kts 269°
2026-05-06 21:57 51.46981 -0.47398 93 ft 3 kts 269°
2026-05-06 21:57 51.46982 -0.47365 93 ft 3 kts 269°
2026-05-06 21:57 51.46982 -0.47332 95 ft 3 kts 269°
2026-05-06 21:57 51.46984 -0.47305 93 ft 0 kts 233°
2026-05-06 21:58 51.46983 -0.47309 93 ft 3 kts 230°
2026-05-06 21:58 51.46966 -0.47328 93 ft 3 kts 217°
2026-05-06 21:58 51.46952 -0.47337 93 ft 0 kts 193°
2026-05-06 21:59 51.46950 -0.47338 93 ft 1 kts 193°
2026-05-06 21:59 51.46933 -0.47344 95 ft 5 kts 192°
2026-05-06 22:00 51.46885 -0.47351 95 ft 8 kts 182°
2026-05-06 22:00 51.46825 -0.47352 94 ft 10 kts 180°
2026-05-06 22:00 51.46767 -0.47400 95 ft 13 kts 233°
2026-05-06 22:00 51.46745 -0.47544 95 ft 14 kts 267°
2026-05-06 22:01 51.46743 -0.47740 94 ft 20 kts 270°
2026-05-06 22:01 51.46742 -0.47969 93 ft 21 kts 270°
2026-05-06 22:01 51.46741 -0.48207 93 ft 21 kts 270°
2026-05-06 22:01 51.46731 -0.48421 95 ft 16 kts 238°
2026-05-06 22:02 51.46642 -0.48469 93 ft 2 kts 181°
2026-05-06 22:02 51.46631 -0.48469 93 ft 0 kts 181°
2026-05-06 22:03 51.46630 -0.48469 93 ft 1 kts 181°
2026-05-06 22:03 51.46621 -0.48469 93 ft 2 kts 181°
2026-05-06 22:03 51.46601 -0.48470 93 ft 4 kts 181°
2026-05-06 22:04 51.46578 -0.48471 94 ft 0 kts 181°
2026-05-06 22:04 51.46573 -0.48471 94 ft 1 kts 181°
2026-05-06 22:04 51.46537 -0.48469 96 ft 8 kts 173°
2026-05-06 22:05 51.46490 -0.48415 94 ft 9 kts 124°
2026-05-06 22:05 51.46477 -0.48253 96 ft 31 kts 92°
2026-05-06 22:05 51.46481 -0.47431 92 ft 116 kts 89°
2026-05-06 22:05 51.46495 -0.45731 149 ft 185 kts 88°
2026-05-06 22:06 51.46509 -0.43565 916 ft 201 kts 88°
2026-05-06 22:06 51.46433 -0.41240 1582 ft 224 kts 99°
2026-05-06 22:06 51.45705 -0.38888 2033 ft 250 kts 133°
2026-05-06 22:06 51.44203 -0.37503 2911 ft 253 kts 165°
2026-05-06 22:07 51.42439 -0.37464 3725 ft 258 kts 194°
2026-05-06 22:07 51.41347 -0.38274 4098 ft 264 kts 218°
2026-05-06 22:07 51.40253 -0.40631 4733 ft 265 kts 252°
2026-05-06 22:07 51.40090 -0.43491 5436 ft 262 kts 280°